Marysville, OH

2:03 AM EST on December 04, 2016 (GMT -0500)
Marysville

Weather History for KMRT - December, 2013

Change the Weather History Date:

Monday, December 16, 2013

  Actual Average (KDLZ) Record (KDLZ)
Temperature  
Mean Temperature 21 °F -  
Max Temperature 28 °F 40 °F 66 °F (1971)
Min Temperature 16 °F 22 °F -14 °F (1951)
Degree Days  
Heating Degree Days 44    
Moisture  
Dew Point 16 °F    
Average Humidity 80    
Maximum Humidity 93    
Minimum Humidity 70    
Precipitation  
Precipitation 0.01 in - - ()
Sea Level Pressure  
Sea Level Pressure 30.07 in    
Wind  
Wind Speed 6 mph (ENE)    
Max Wind Speed 12 mph    
Max Gust Speed 18 mph    
Visibility 7 miles    
Events      
Averages and records for this station are not official NWS values.
T = Trace of Precipitation, MM = Missing Value Source: NWS Daily Summary

Daily Weather History Graph

Daily Weather History Graph

Search for Another Location

Airport or City:

Trip Planner

Search our weather history database for the weather conditions in past years. The results will help you decide how hot, cold, wet, or windy it might be!

Date:

Astronomy

Dec. 16, 2013 Rise Set
Actual Time 7:49 AM EST 5:08 PM EST
Civil Twilight 7:18 AM EST 5:39 PM EST
Nautical Twilight 6:44 AM EST 6:13 PM EST
Astronomical Twilight 6:11 AM EST 6:46 PM EST
Moon 4:58 PM EST (12/16) 6:57 AM EST (12/16)
Length of Visible Light 10h 20m
Length of Day
9h 19m
Full, 100% of the Moon is Illuminated
Dec 16
Full
Dec 17
Full
Dec 25
Last Quarter
Jan 1
New
Jan 7
First Quarter

Hourly Weather History & Observations

Time (EST) Temp. Windchill Dew Point Humidity Pressure Visibility Wind Dir Wind Speed Gust Speed Precip Events Conditions
12:14 AM 21.2 °F 10.1 °F 12.9 °F 70% 30.07 in 10.0 mi West 10.4 mph 18.4 mph N/A   Overcast
12:34 AM 21.2 °F 9.5 °F 12.7 °F 70% 30.07 in 10.0 mi West 11.5 mph 17.3 mph N/A   Overcast
12:54 AM 21.0 °F 10.6 °F 12.7 °F 70% 30.06 in 10.0 mi West 9.2 mph - N/A   Overcast
1:14 AM 20.8 °F 9.7 °F 12.7 °F 71% 30.07 in 10.0 mi WNW 10.4 mph - N/A   Overcast
1:34 AM 20.8 °F 12.1 °F 12.7 °F 71% 30.06 in 10.0 mi WNW 6.9 mph - N/A   Overcast
1:54 AM 20.8 °F 13.2 °F 12.7 °F 71% 30.07 in 10.0 mi WNW 5.8 mph - N/A   Overcast
2:14 AM 20.7 °F 11.9 °F 12.7 °F 71% 30.07 in 10.0 mi WNW 6.9 mph - N/A   Overcast
2:35 AM 20.7 °F 11.9 °F 12.9 °F 72% 30.07 in 10.0 mi WNW 6.9 mph - N/A   Overcast
2:54 AM 20.7 °F 11.0 °F 13.1 °F 73% 30.08 in 10.0 mi WNW 8.1 mph - N/A   Overcast
3:14 AM 20.3 °F 15.4 °F 13.5 °F 75% 30.08 in 7.0 mi WNW 3.5 mph - N/A   Overcast
3:35 AM 20.3 °F 11.5 °F 13.5 °F 75% 30.08 in 7.0 mi NW 6.9 mph - N/A   Overcast
3:54 AM 20.3 °F 10.6 °F 13.6 °F 75% 30.08 in 7.0 mi WNW 8.1 mph - N/A   Overcast
4:14 AM 20.1 °F 12.3 °F 13.8 °F 77% 30.08 in 7.0 mi WNW 5.8 mph - N/A   Overcast
4:35 AM 19.9 °F 12.1 °F 13.6 °F 77% 30.08 in 5.0 mi WNW 5.8 mph - N/A   Overcast
4:54 AM 19.8 °F 11.9 °F 14.0 °F 78% 30.08 in 7.0 mi NW 5.8 mph - N/A   Overcast
5:14 AM 19.9 °F 12.1 °F 14.5 °F 80% 30.09 in 5.0 mi NW 5.8 mph - N/A   Overcast
5:34 AM 19.0 °F 12.3 °F 14.5 °F 83% 30.09 in 4.0 mi NNE 4.6 mph - N/A   Overcast
5:54 AM 18.3 °F 10.2 °F 14.4 °F 85% 30.09 in 1.5 mi NNE 5.8 mph - N/A   Overcast
6:15 AM 17.6 °F 10.7 °F 14.0 °F 86% 30.09 in 2.0 mi NNE 4.6 mph - N/A   Overcast
6:34 AM 17.2 °F 10.2 °F 13.6 °F 86% 30.10 in 3.0 mi NNE 4.6 mph - N/A   Overcast
6:54 AM 16.7 °F 8.3 °F 13.1 °F 86% 30.10 in 2.5 mi NNE 5.8 mph - N/A   Overcast
7:15 AM 16.5 °F 9.4 °F 12.7 °F 85% 30.11 in 3.0 mi NNE 4.6 mph - N/A   Overcast
7:34 AM 16.5 °F 8.1 °F 12.7 °F 85% 30.12 in 2.5 mi NNE 5.8 mph - N/A   Overcast
7:54 AM 16.3 °F 9.2 °F 12.7 °F 86% 30.12 in 1.8 mi NNE 4.6 mph - N/A   Overcast
8:15 AM 16.5 °F 9.4 °F 12.6 °F 84% 30.12 in 3.0 mi NNE 4.6 mph - N/A   Overcast
8:34 AM 16.5 °F 9.4 °F 12.2 °F 83% 30.12 in 2.0 mi NNE 4.6 mph - N/A   Overcast
8:54 AM 16.7 °F - 12.2 °F 82% 30.12 in 2.0 mi Calm Calm - N/A   Overcast
9:15 AM 16.7 °F 9.6 °F 12.2 °F 82% 30.13 in 3.0 mi ENE 4.6 mph - N/A   Overcast
9:34 AM 17.1 °F 11.7 °F 12.6 °F 82% 30.13 in 7.0 mi NE 3.5 mph - N/A   Overcast
9:54 AM 17.4 °F 12.1 °F 12.7 °F 82% 30.13 in 10.0 mi East 3.5 mph - N/A   Overcast
10:15 AM 17.6 °F 12.3 °F 12.7 °F 81% 30.14 in 10.0 mi East 3.5 mph - N/A   Overcast
10:34 AM 18.5 °F 13.3 °F 13.1 °F 79% 30.14 in 10.0 mi East 3.5 mph - N/A   Overcast
10:54 AM 18.9 °F 10.8 °F 13.1 °F 78% 30.14 in 10.0 mi East 5.8 mph - N/A   Overcast
11:15 AM 19.4 °F 12.8 °F 13.1 °F 76% 30.13 in 10.0 mi East 4.6 mph - N/A   Overcast
11:34 AM 19.8 °F 13.2 °F 13.1 °F 75% 30.12 in 10.0 mi East 4.6 mph - N/A   Overcast
11:54 AM 20.1 °F 13.6 °F 13.6 °F 76% 30.11 in 10.0 mi ESE 4.6 mph - N/A   Overcast
12:14 PM 20.3 °F 13.8 °F 13.5 °F 75% 30.11 in 10.0 mi East 4.6 mph - N/A   Overcast
12:34 PM 20.7 °F 14.2 °F 14.0 °F 75% 30.09 in 10.0 mi East 4.6 mph - N/A   Overcast
12:54 PM 20.8 °F 14.4 °F 14.0 °F 75% 30.09 in 10.0 mi East 4.6 mph - N/A   Overcast
1:14 PM 21.0 °F 14.6 °F 13.6 °F 73% 30.08 in 10.0 mi East 4.6 mph - N/A   Overcast
1:34 PM 21.2 °F 16.4 °F 13.1 °F 71% 30.06 in 10.0 mi East 3.5 mph - N/A   Overcast
1:54 PM 21.2 °F 14.9 °F 13.6 °F 73% 30.05 in 10.0 mi ESE 4.6 mph - N/A   Overcast
2:14 PM 21.6 °F 15.3 °F 14.2 °F 73% 30.06 in 10.0 mi ESE 4.6 mph - N/A   Overcast
2:34 PM 21.7 °F 15.5 °F 14.7 °F 74% 30.06 in 10.0 mi ENE 4.6 mph - N/A   Overcast
2:54 PM 21.7 °F 15.5 °F 14.7 °F 74% 30.05 in 10.0 mi East 4.6 mph - N/A   Overcast
3:14 PM 21.9 °F 15.7 °F 14.7 °F 74% 30.06 in 10.0 mi ENE 4.6 mph - N/A   Overcast
3:34 PM 21.9 °F 17.2 °F 14.7 °F 74% 30.06 in 10.0 mi East 3.5 mph - N/A   Overcast
3:54 PM 22.1 °F 15.9 °F 15.3 °F 75% 30.05 in 10.0 mi ESE 4.6 mph - N/A   Overcast
4:14 PM 22.5 °F 15.1 °F 15.4 °F 74% 30.06 in 10.0 mi East 5.8 mph - N/A   Overcast
4:34 PM 22.5 °F 17.8 °F 15.6 °F 75% 30.06 in 10.0 mi ESE 3.5 mph - N/A   Overcast
4:54 PM 22.6 °F 18.0 °F 15.4 °F 74% 30.05 in 10.0 mi ESE 3.5 mph - N/A   Overcast
5:14 PM 22.6 °F - 15.8 °F 75% 30.05 in 10.0 mi Calm Calm - N/A   Overcast
5:34 PM 22.6 °F 18.0 °F 16.0 °F 76% 30.04 in 10.0 mi SE 3.5 mph - N/A   Overcast
5:54 PM 22.8 °F - 16.5 °F 77% 30.05 in 10.0 mi Calm Calm - N/A   Overcast
6:14 PM 23.0 °F - 17.2 °F 79% 30.05 in 10.0 mi Calm Calm - N/A   Overcast
6:34 PM 23.4 °F - 18.1 °F 80% 30.04 in 7.0 mi Calm Calm - N/A   Overcast
6:54 PM 23.7 °F - 19.8 °F 85% 30.05 in 4.0 mi Calm Calm - N/A   Overcast
7:14 PM 23.7 °F 19.3 °F 20.5 °F 87% 30.05 in 1.8 mi South 3.5 mph - N/A   Overcast
7:34 PM 23.9 °F 18.0 °F 21.0 °F 89% 30.04 in 1.8 mi South 4.6 mph - N/A   Overcast
7:54 PM 23.9 °F 19.5 °F 21.2 °F 89% 30.04 in 2.0 mi South 3.5 mph - N/A   Overcast
8:14 PM 24.3 °F 19.9 °F 21.7 °F 90% 30.03 in 1.8 mi South 3.5 mph - N/A   Overcast
8:34 PM 24.4 °F - 21.9 °F 90% 30.02 in 1.8 mi Calm Calm - N/A   Overcast
8:54 PM 24.6 °F 18.8 °F 22.1 °F 90% 30.02 in 2.5 mi South 4.6 mph - N/A   Overcast
9:14 PM 24.8 °F - 22.5 °F 91% 30.00 in 1.5 mi Calm Calm - N/A   Overcast
9:34 PM 25.2 °F - 22.8 °F 91% 29.99 in 2.0 mi Calm Calm - 0.01 in   Overcast
9:55 PM 25.5 °F - 23.4 °F 92% 29.99 in 2.5 mi Calm Calm - 0.01 in   Overcast
10:14 PM 25.7 °F 20.1 °F 23.5 °F 92% 29.98 in 2.5 mi South 4.6 mph - N/A   Overcast
10:35 PM 26.2 °F 20.7 °F 24.1 °F 92% 29.98 in 2.5 mi SSW 4.6 mph - N/A   Overcast
10:54 PM 26.4 °F 19.8 °F 24.3 °F 92% 29.98 in 2.5 mi SSW 5.8 mph - N/A   Overcast
11:14 PM 26.6 °F 21.2 °F 24.6 °F 92% 29.98 in 2.5 mi SSW 4.6 mph - N/A   Overcast
11:35 PM 26.6 °F 18.2 °F 24.8 °F 93% 29.98 in 2.5 mi SSW 8.1 mph - N/A   Overcast
11:54 PM 27.0 °F 18.7 °F 25.0 °F 92% 29.97 in 2.5 mi SW 8.1 mph - N/A   Overcast